Hulett, WY

5:27 PM MDT on August 20, 2019 (GMT -0600)
Hulett

Weather History for KW43 - May, 2019

Change the Weather History Date:

Tuesday, May 14, 2019

  Actual Average (WUND) Record (WUND)
Temperature  
Mean Temperature 60 °F -  
Max Temperature 75 °F - - (-1)
Min Temperature 46 °F - - (-1)
Degree Days  
Heating Degree Days 4    
Growing Degree Days 10 (Base 50)    
Moisture  
Dew Point 44 °F    
Average Humidity 57    
Maximum Humidity 81    
Minimum Humidity 29    
Precipitation  
Precipitation 0.06 in - - ()
Sea Level Pressure  
Sea Level Pressure 29.96 in    
Wind  
Wind Speed 4 mph (SE)    
Max Wind Speed 20 mph    
Max Gust Speed 23 mph    
Visibility 10 miles    
Events Rain , Thunderstorm    
Averages and records for this station are not official NWS values.
T = Trace of Precipitation, MM = Missing Value Source: NWS Daily Summary

Daily Weather History Graph

Daily Weather History Graph

Search for Another Location

Airport or City:

Astronomy

May. 14, 2019 Rise Set
Actual Time 5:31 AM MDT 8:18 PM MDT
Civil Twilight 4:57 AM MDT 8:52 PM MDT
Nautical Twilight 4:15 AM MDT 9:35 PM MDT
Astronomical Twilight 3:25 AM MDT 10:25 PM MDT
Moon 3:27 PM MDT (5/14) 3:42 AM MDT (5/14)
Length of Visible Light 15h 54m
Length of Day
14h 46m
Waxing Gibbous, 79% of the Moon is Illuminated
May 14
Waxing Gibbous
May 18
Full
May 26
Last Quarter
Jun 3
New
Jun 10
First Quarter

Hourly Weather History & Observations

Time (MDT) Temp. Windchill Dew Point Humidity Pressure Visibility Wind Dir Wind Speed Gust Speed Precip Events Conditions
12:15 AM 53.6 °F - 42.8 °F 67% 29.94 in 10.0 mi East 4.6 mph - N/A   Clear
12:35 AM 53.6 °F - 42.8 °F 67% 29.94 in 10.0 mi Calm Calm - N/A   Clear
12:55 AM 53.6 °F - 42.8 °F 67% 29.94 in 10.0 mi Calm Calm - N/A   Clear
1:15 AM 53.6 °F - 42.8 °F 67% 29.94 in 10.0 mi Calm Calm - N/A   Clear
1:35 AM 51.8 °F - 42.8 °F 71% 29.94 in 10.0 mi South 4.6 mph - N/A   Clear
1:55 AM 50.0 °F - 42.8 °F 76% 29.93 in 10.0 mi South 6.9 mph - N/A   Clear
2:15 AM 51.8 °F - 42.8 °F 71% 29.94 in 10.0 mi Calm Calm - N/A   Clear
2:35 AM 51.8 °F - 42.8 °F 71% 29.94 in 10.0 mi Calm Calm - N/A   Clear
2:55 AM 51.8 °F - 42.8 °F 71% 29.94 in 10.0 mi Calm Calm - N/A   Clear
3:15 AM 53.6 °F - 42.8 °F 67% 29.94 in 10.0 mi Calm Calm - N/A   Clear
3:35 AM 51.8 °F - 42.8 °F 71% 29.94 in 10.0 mi Calm Calm - N/A   Clear
3:55 AM 51.8 °F - 42.8 °F 71% 29.94 in 10.0 mi WSW 3.5 mph - N/A   Clear
4:15 AM 46.4 °F 42.9 °F 41.0 °F 81% 29.95 in 10.0 mi SSW 6.9 mph - N/A   Clear
4:35 AM 46.4 °F 41.5 °F 41.0 °F 81% 29.95 in 10.0 mi SSW 10.4 mph - N/A   Clear
4:55 AM 46.4 °F 41.9 °F 41.0 °F 81% 29.95 in 10.0 mi SSW 9.2 mph - N/A   Clear
5:15 AM 48.2 °F - 41.0 °F 76% 29.96 in 10.0 mi SSW 9.2 mph - N/A   Clear
5:35 AM 46.4 °F - 41.0 °F 81% 29.97 in 10.0 mi Calm Calm - N/A   Scattered Clouds
5:55 AM 46.4 °F 42.9 °F 41.0 °F 81% 29.97 in 10.0 mi South 6.9 mph - N/A   Scattered Clouds
6:15 AM 48.2 °F - 41.0 °F 76% 29.97 in 10.0 mi Calm Calm - N/A   Clear
6:35 AM 50.0 °F - 41.0 °F 71% 29.98 in 10.0 mi SW 3.5 mph - N/A   Clear
6:55 AM 51.8 °F - 44.6 °F 76% 29.99 in 10.0 mi SSE 3.5 mph - N/A   Clear
7:15 AM 59.0 °F - 44.6 °F 59% 29.99 in 10.0 mi SE 3.5 mph - N/A   Clear
7:35 AM 60.8 °F - 46.4 °F 59% 29.98 in 10.0 mi Calm Calm - N/A   Clear
7:55 AM 59.0 °F - 46.4 °F 63% 29.99 in 10.0 mi Calm Calm - N/A   Clear
8:15 AM 62.6 °F - 48.2 °F 59% 29.99 in 10.0 mi Calm Calm - N/A   Clear
8:35 AM 62.6 °F - 50.0 °F 63% 29.99 in 10.0 mi Calm Calm - N/A   Clear
8:55 AM 62.6 °F - 48.2 °F 59% 29.99 in 10.0 mi Calm Calm - N/A   Clear
9:15 AM 60.8 °F - 46.4 °F 59% 29.99 in 10.0 mi Calm Calm - N/A   Clear
9:35 AM 62.6 °F - 48.2 °F 59% 29.99 in 10.0 mi Calm Calm - N/A   Scattered Clouds
9:55 AM 64.4 °F - 48.2 °F 56% 29.99 in 10.0 mi Calm Calm - N/A   Mostly Cloudy
10:15 AM 68.0 °F - 48.2 °F 49% 29.99 in 10.0 mi Calm Calm - N/A   Mostly Cloudy
10:35 AM 68.0 °F - 46.4 °F 46% 29.99 in 10.0 mi Calm Calm - N/A   Mostly Cloudy
10:55 AM 71.6 °F - 44.6 °F 38% 29.99 in 10.0 mi Calm Calm - N/A   Mostly Cloudy
11:15 AM 71.6 °F - 44.6 °F 38% 29.99 in 10.0 mi NNW 4.6 mph - N/A   Overcast
11:35 AM 71.6 °F - 44.6 °F 38% 29.99 in 10.0 mi NNE 9.2 mph - N/A   Overcast
11:55 AM 71.6 °F - 42.8 °F 35% 29.99 in 10.0 mi North 8.1 mph - N/A   Overcast
12:15 PM 73.4 °F - 41.0 °F 31% 29.99 in 10.0 mi NE 4.6 mph - N/A   Scattered Clouds
12:35 PM 71.6 °F - 42.8 °F 35% 29.99 in 10.0 mi ENE 8.1 mph - N/A   Clear
12:55 PM 71.6 °F - 42.8 °F 35% 29.98 in 10.0 mi East 5.8 mph - N/A   Scattered Clouds
1:15 PM 75.2 °F - 44.6 °F 34% 29.98 in 10.0 mi East 8.1 mph - N/A   Clear
1:35 PM 73.4 °F - 44.6 °F 36% 29.97 in 10.0 mi East 9.2 mph - N/A   Clear
1:55 PM 73.4 °F - 44.6 °F 36% 29.97 in 10.0 mi East 8.1 mph - N/A   Clear
2:15 PM 75.2 °F - 41.0 °F 29% 29.97 in 10.0 mi East 10.4 mph - N/A   Clear
2:35 PM 73.4 °F - 41.0 °F 31% 29.96 in 10.0 mi East 12.7 mph 18.4 mph N/A   Clear
2:55 PM 75.2 °F - 41.0 °F 29% 29.94 in 10.0 mi ENE 11.5 mph 19.6 mph N/A   Clear
3:15 PM 69.8 °F - 39.2 °F 33% 29.94 in 10.0 mi ESE 19.6 mph 23.0 mph N/A Rain Light Rain
3:35 PM 69.8 °F - 37.4 °F 31% 29.94 in 10.0 mi East 10.4 mph 17.3 mph N/A Rain , Thunderstorm Light Thunderstorms and Rain
3:55 PM 68.0 °F - 41.0 °F 37% 29.96 in 7.0 mi NE 3.5 mph - N/A Rain , Thunderstorm Light Thunderstorms and Rain
4:15 PM 64.4 °F - 48.2 °F 56% 29.94 in 10.0 mi East 11.5 mph 20.7 mph 0.06 in Rain Light Rain
4:35 PM 66.2 °F - 50.0 °F 56% 29.94 in 10.0 mi SE 17.3 mph 20.7 mph 0.06 in Thunderstorm Thunderstorm
4:55 PM 68.0 °F - 50.0 °F 52% 29.94 in 10.0 mi ESE 12.7 mph - 0.06 in   Clear
5:15 PM 68.0 °F - 48.2 °F 49% 29.93 in 10.0 mi ESE 10.4 mph - N/A   Clear
5:35 PM 69.8 °F - 48.2 °F 46% 29.94 in 10.0 mi ESE 12.7 mph 17.3 mph N/A   Clear
5:55 PM 69.8 °F - 46.4 °F 43% 29.94 in 10.0 mi SE 15.0 mph - N/A   Clear
6:15 PM 68.0 °F - 44.6 °F 43% 29.94 in 10.0 mi SE 12.7 mph 19.6 mph N/A   Clear
6:35 PM 68.0 °F - 44.6 °F 43% 29.93 in 10.0 mi SE 11.5 mph - N/A   Clear
6:55 PM 64.4 °F - 46.4 °F 52% 29.94 in 10.0 mi SSE 6.9 mph - N/A   Clear
7:15 PM 64.4 °F - 48.2 °F 56% 29.94 in 10.0 mi Calm Calm - N/A   Clear
7:35 PM 62.6 °F - 46.4 °F 55% 29.95 in 10.0 mi South 4.6 mph - N/A   Clear
7:55 PM 60.8 °F - 46.4 °F 59% 29.95 in 10.0 mi South 8.1 mph - N/A   Clear
8:15 PM 59.0 °F - 46.4 °F 63% 29.95 in 10.0 mi SSE 9.2 mph - N/A   Clear
8:35 PM 57.2 °F - 46.4 °F 67% 29.95 in 10.0 mi South 5.8 mph - N/A   Clear
8:55 PM 59.0 °F - 44.6 °F 59% 29.96 in 10.0 mi SSE 5.8 mph - N/A   Clear
9:15 PM 60.8 °F - 44.6 °F 55% 29.98 in 10.0 mi Calm Calm - N/A   Clear
9:35 PM 60.8 °F - 42.8 °F 52% 29.98 in 10.0 mi Calm Calm - N/A   Clear
9:55 PM 60.8 °F - 44.6 °F 55% 29.98 in 10.0 mi Calm Calm - N/A   Clear
10:15 PM 57.2 °F - 46.4 °F 67% 29.98 in 10.0 mi ENE 3.5 mph - N/A   Clear
10:35 PM 55.4 °F - 46.4 °F 72% 29.98 in 10.0 mi East 3.5 mph - N/A   Clear
10:55 PM 55.4 °F - 46.4 °F 72% 29.97 in 10.0 mi Calm Calm - N/A   Clear
11:15 PM 55.4 °F - 46.4 °F 72% 29.97 in 10.0 mi South 3.5 mph - N/A   Clear
11:35 PM 55.4 °F - 46.4 °F 72% 29.97 in 10.0 mi SW 8.1 mph - N/A   Scattered Clouds
11:55 PM 57.2 °F - 44.6 °F 63% 29.96 in 10.0 mi SW 6.9 mph - N/A   Scattered Clouds